Regional Weather Roundup
Issued by NWS

Home | Current Version | Previous Version | Text Only | Print | Product List | Glossary Off
Versions: 1 2 3 4 5 6 7 8 9 10 11 12 13 14 15 16 17 18 19 20 21 22 23 24 25 26 27 28 29 30 31 32 33 34 35 36 37 38 39 40 41 42 43 44 45 46 47 48 49 50

000
ASUS43 KBIS 010601
RWRND

NORTH DAKOTA REGIONAL WEATHER ROUNDUP
NATIONAL WEATHER SERVICE BISMARCK ND
1200 AM CST SUN FEB 01 2015

NOTE: "FAIR" INDICATES FEW OR NO CLOUDS BELOW 12,000 FEET WITH NO
SIGNIFICANT WEATHER AND/OR OBSTRUCTIONS TO VISIBILITY.


NDZ001>003-009>011-017-010700-
NORTHWEST NORTH DAKOTA

CITY           SKY/WX    TMP DP  RH WIND       PRES   REMARKS
WILLISTON      CLOUDY    -3 -12  65 NE9       30.48R WCI -19
6HR MIN TEMP:  -3; 6HR MAX TEMP:   3; 6HR PCP:  0.03;

MINOT          PTCLDY    -9 -19  61 N13       30.49R WCI -29
MINOT AFB      MOCLDY    -8 -15  71 N10       30.50R WCI -27
$$

NDZ018>021-031>035-040>046-010700-
SOUTHWEST NORTH DAKOTA

CITY           SKY/WX    TMP DP  RH WIND       PRES   REMARKS
BISMARCK       LGT SNOW  -3 -10  72 N15       30.43S WCI -23
6HR MIN TEMP:  -3; 6HR MAX TEMP:   7; 6HR PCP:  0.07;

DICKINSON      LGT SNOW  -2  -8  76 NE15      30.33R WCI -22
GARRISON         N/A     -4 -10  75 N8        30.44R WCI -19
6HR MIN TEMP:  -4; 6HR MAX TEMP:   0; 6HR PCP:  0.06;

HETTINGER ARPT LGT SNOW   0  -5  79 N12       30.30R WCI -17
$$

NDZ004>008-012>016-024-026-027-054-010700-
NORTHEAST NORTH DAKOTA

CITY           SKY/WX    TMP DP  RH WIND       PRES   REMARKS
GRAND FORKS    PTCLDY    -8 -16  67 N14       30.55R WCI -29
GRND FRKS AFB  CLEAR    -10 -19  63 NE16G23   30.55R WCI -32
DEVILS LAKE    PTCLDY    -9 -20  59 NE10      30.48R WCI -28
$$

NDZ022-023-025-028>030-036>039-047>053-010700-
SOUTHEAST NORTH DAKOTA

CITY           SKY/WX    TMP DP  RH WIND       PRES   REMARKS
FARGO          CLOUDY    -1 -10  65 N18       30.44R WCI -22
6HR MIN TEMP:  -2; 6HR MAX TEMP:   7;

JAMESTOWN      CLOUDY    -4 -13  65 N17       30.41R WCI -26
$$



USA.gov is the U.S. government's official web portal to all federal, state and local government web resources and services.